Simultaneous Nadir Overpasses (SNOs) Predictions

Prediction of SNOs between METOP-A and NPP Satellite Orbit:

Table of predicted SNOs for the next 14.0 days since TLE Epoch: 3/27/2021
Index Date (METOP-A) Time (METOP-A) Lat,Lon (METOP-A) SZA (METOP-A ) Date (NPP) Time (NPP) Lat,Lon (NPP) SZA (NPP ) Distance(km) Time Diff (sec)
1 03/29/2021 11:33:24 -76.93, 170.19 106.08 03/29/2021 11:32:17 -76.92, 166.97 105.81 81.14 67
2 03/29/2021 12:24:09 76.72, -23.30 73.77 03/29/2021 12:22:58 76.71, -24.88 73.91 40.54 71
3 03/29/2021 13:14:53 -76.60, 143.59 106.33 03/29/2021 13:13:40 -76.62, 142.78 106.22 21.04 73
4 03/29/2021 14:05:35 76.51, -49.37 73.60 03/29/2021 14:04:23 76.49, -49.43 73.61 2.92 72
5 03/29/2021 14:56:17 -76.49, 117.86 106.43 03/29/2021 14:55:07 -76.49, 117.89 106.41 0.98 70
6 03/29/2021 15:46:57 76.49, -74.79 73.56 03/29/2021 15:45:53 76.50, -74.83 73.59 1.02 64
7 03/29/2021 16:37:38 -76.51, 92.61 106.44 03/29/2021 16:36:37 -76.50, 92.50 106.43 3.43 61
8 03/29/2021 17:28:19 76.47,-100.20 73.52 03/29/2021 17:27:23 76.50,-100.22 73.57 3.22 56
9 03/29/2021 18:19:00 -76.49, 67.19 106.49 03/29/2021 18:18:07 -76.50, 67.10 106.45 2.55 53
10 03/29/2021 19:09:40 76.50,-125.45 73.51 03/29/2021 19:08:52 76.46,-125.45 73.49 4.06 48
11 03/29/2021 20:00:22 -76.47, 41.78 106.53 03/29/2021 19:59:36 -76.46, 41.87 106.53 2.68 46
12 03/29/2021 20:51:02 76.48,-150.86 73.47 03/29/2021 20:50:22 76.47,-150.84 73.47 1.30 40
13 03/29/2021 21:41:44 -76.45, 16.37 106.57 03/29/2021 21:41:06 -76.47, 16.48 106.55 3.24 38
14 03/29/2021 22:32:24 76.46,-176.28 73.43 03/29/2021 22:31:52 76.47,-176.24 73.45 1.92 32
15 03/29/2021 23:23:05 -76.48, -8.88 106.58 03/29/2021 23:22:36 -76.47, -8.92 106.57 1.15 29
16 03/30/2021 00:13:45 76.49, 158.47 73.42 03/30/2021 00:13:22 76.48, 158.37 73.43 2.88 23
17 03/30/2021 01:04:27 -76.46, -34.29 106.62 03/30/2021 01:04:06 -76.48, -34.31 106.59 2.24 21
18 03/30/2021 01:55:07 76.47, 133.06 73.38 03/30/2021 01:54:52 76.49, 132.97 73.41 3.31 15
19 03/30/2021 02:45:48 -76.48, -59.54 106.63 03/30/2021 02:45:36 -76.48, -59.71 106.61 4.26 12
20 03/30/2021 03:36:29 76.44, 107.65 73.34 03/30/2021 03:36:21 76.45, 107.74 73.33 2.42 8
21 03/30/2021 04:27:10 -76.46, -84.96 106.67 03/30/2021 04:27:05 -76.44, -84.94 106.69 2.27 5
22 03/30/2021 05:17:50 76.47, 82.40 73.33 03/30/2021 05:17:51 76.45, 82.35 73.31 2.49 1
23 03/30/2021 06:08:32 -76.44,-110.37 106.71 03/30/2021 06:08:35 -76.45,-110.33 106.71 1.13 3
24 03/30/2021 06:59:12 76.45, 56.99 73.29 03/30/2021 06:59:21 76.46, 56.95 73.29 1.21 9
25 03/30/2021 07:49:53 -76.47,-135.62 106.72 03/30/2021 07:50:05 -76.46,-135.73 106.73 3.25 12
26 03/30/2021 08:40:34 76.43, 31.57 73.24 03/30/2021 08:40:51 76.46, 31.56 73.27 3.70 17
27 03/30/2021 09:31:15 -76.45,-161.03 106.76 03/30/2021 09:31:35 -76.46,-161.12 106.75 2.67 20
28 03/30/2021 10:21:55 76.46, 6.32 73.23 03/30/2021 10:22:20 76.42, 6.33 73.20 3.59 25
29 03/30/2021 11:12:37 -76.43, 173.56 106.80 03/30/2021 11:13:04 -76.42, 173.65 106.83 2.55 27
30 03/30/2021 12:03:17 76.44, -19.09 73.19 03/30/2021 12:03:50 76.43, -19.07 73.17 0.90 33
31 03/30/2021 12:53:59 -76.41, 148.15 106.84 03/30/2021 12:54:34 -76.43, 148.25 106.85 3.40 35
32 03/30/2021 13:44:39 76.42, -44.50 73.15 03/30/2021 13:45:20 76.44, -44.46 73.15 2.38 41
33 03/30/2021 14:35:20 -76.44, 122.90 106.85 03/30/2021 14:36:04 -76.43, 122.86 106.87 1.01 44
34 03/30/2021 15:26:00 76.44, -69.75 73.14 03/30/2021 15:26:50 76.44, -69.86 73.13 2.78 50
35 03/30/2021 16:16:42 -76.42, 97.48 106.89 03/30/2021 16:17:34 -76.44, 97.47 106.89 2.57 52
36 03/30/2021 17:07:22 76.42, -95.16 73.10 03/30/2021 17:08:19 76.40, -95.09 73.06 2.98 57
37 03/30/2021 17:58:04 -76.40, 72.07 106.93 03/30/2021 17:59:03 -76.40, 72.24 106.96 4.24 59
38 03/30/2021 18:48:44 76.40,-120.58 73.06 03/30/2021 18:49:49 76.41,-120.48 73.04 2.52 65
39 03/30/2021 19:39:25 -76.42, 46.82 106.94 03/30/2021 19:40:33 -76.40, 46.84 106.99 1.94 68
40 03/30/2021 20:30:05 76.43,-145.83 73.05 03/30/2021 20:31:19 76.41,-145.88 73.02 2.07 74
41 03/30/2021 21:20:49 -76.31, 21.09 107.05 03/30/2021 21:22:02 -76.37, 21.61 107.06 14.92 73
42 03/30/2021 22:11:34 76.08,-172.34 72.80 03/30/2021 22:12:43 76.15,-170.30 72.66 54.96 69
43 03/30/2021 23:02:18 -75.96, -5.40 107.30 03/30/2021 23:03:25 -76.05, -2.66 107.47 74.13 67



Historial Predications of SNOs between METOP-A and NPP
